www.pogodaiklimat.ru

Погода и климат >> Архив погоды >> Россия >> Башкирия >> Уфа


АРХИВ ПОГОДЫ в Уфе

Время (UTC), дата Ветер
(напр.,м/с)
 
Видим.   Явления Облачность Т
(С)
Тd
(С)
f
(%)
Тe
(С)
Тes
(С)
Комфортность P
(гПа)
Po
(гПа)
Тmin
(С)
Tmax
(С)
R
(мм)
R24
(мм)
S
(см)
21 14.07 СЗ 3 10 км слаб. ливневой дождь 10/10 600 м
[Cb cap]
+16.7 +14.7 88 +16 +16 по сезону 1004.8 992.6
00 15.07 СЗ 2 10 км {ливн. осадки} 9/9 1000 м
[Sc]
+15.8 +14.3 91 +16 +16 тепло 1002.8 990.6
03 15.07 СЗ 3 10 км 10/10 600 м
[Cb cap]
+16.9 +15.4 91 +17 +17 по сезону 999.9 987.8 +15.8 0.9
06 15.07 С 3 10 км в посл. час гроза {ливн. осадки} 9/8 1000 м
[Cu Sc Ci fib]
+20.4 +17.5 83 +24 +26 комфорт 993.5 981.6
09 15.07 Ю 4 10 км 9/8 1000 м
[Cu med, cong Ci fib]
+27.9 +15.8 48 +31 +33 душно 991.8 980.2
12 15.07 Ю 6-11
{14}
10 км 9/9 600 м
[Cb cap]
+21.6 +16.0 70 +25 +25 комфорт 994.6 982.7
15 15.07 ЮЗ 4
{11}
10 км в посл. час ливневой дождь 10/10 600 м
[Sc]
+15.7 +13.8 88 +15 +15 холодно 997.3 985.2 +28.1 3
18 15.07 ЮЗ 5
{11}
10 км слаб. ливневой дождь 10/10 600 м
[Cb cap]
+14.3 +12.4 88 +13 +13 холодно 1001.0 988.7
21 15.07 ЮЗ 4 10 км {ливн. осадки} 10/10 600 м
[Sc]
+15.2 +11.6 79 +14 +14 прохладно 1003.0 990.7
00 16.07 З 5 10 км {ливн. осадки} 10/10 600 м
[Sc]
+16.1 +12.4 79 +15 +15 по сезону 1004.4 992.2
03 16.07 З 5
{12}
10 км 9/3 1000 м
[Sc Ac trans Ci fib]
+17.6 +12.6 72 +17 +18 по сезону 1006.4 994.2 +14.0 4
06 16.07 З 5-11
{11}
10 км 8/4 1000 м
[Cu hum Ac trans Ci fib]
+21.8 +12.3 55 +24 +27 комфорт 1008.4 996.3
09 16.07 З 4
{11}
10 км 8/8 1000 м
[Cu hum]
+24.1 +11.5 45 +26 +28 жарко 1010.5 998.5
12 16.07 З 3 10 км 8/6 1000 м
[Cu hum Ci fib]
+25.0 +10.3 40 +26 +28 жарко 1011.2 999.2
15 16.07 З 1 10 км 8/1 1000 м
[Cu hum Ac trans Ci fib]
+23.8 +10.4 43 +25 +26 комфорт 1012.1 1000.0 +25.1
18 16.07 ЮЗ 1 10 км 9/0
[Ac trans Ci fib]
+16.1 +13.2 83 +17 +17 по сезону 1013.7 1001.3
21 16.07 ЮЗ 1 10 км 9/0
[Ci fib]
+13.8 +12.0 89 +14 +14 по сезону 1014.5 1002.1
00 17.07 З 1 10 км 9/0
[Ac trans Ci fib]
+12.9 +11.7 92 +13 +13 по сезону 1014.9 1002.4
03 17.07 штиль 0 10 км 8/0
[Ac trans Ci fib]
+18.6 +13.8 74 +19 +23 по сезону 1015.5 1003.2 +12.7
06 17.07 ЮВ 2 10 км 9/3 1000 м
[Cu med, cong Ac trans Ci fib]
+24.4 +12.1 46 +26 +31 жарко 1014.6 1002.5
09 17.07 Ю 1 10 км 9/6 1000 м
[Cu hum Ac trans Ci fib]
+26.3 +9.5 35 +27 +31 жарко 1013.7 1001.8
12 17.07 ЮВ 2 10 км 9/6 1000 м
[Sc Ac trans Ci fib]
+26.2 +9.8 36 +27 +29 жарко 1013.1 1001.1
15 17.07 штиль 0 10 км 10/3 1000 м
[Sc Ac As]
+23.5 +13.9 55 +26 +26 жарко 1012.4 1000.4 +27.0
18 17.07 ЮЗ 1 10 км слаб. ливневой дождь 10/10 600 м
[Cb cap]
+19.0 +16.8 87 +22 +22 комфорт 1012.9 1000.7
21 17.07 ЮЗ 1 10 км {ливн. осадки} 8/0
[Ac trans Ci fib]
+16.7 +15.0 90 +18 +18 тепло 1012.3 1000.0
00 18.07 ЮЗ 1 10 км {ливн. осадки} ясно +13.5 +12.2 92 +14 +14 по сезону 1011.9 999.5
03 18.07 СВ 1 10 км 9/0
[Ac trans Ci fib]
+19.5 +15.6 78 +22 +25 комфорт 1010.9 998.8 +13.0 0.1
06 18.07 СВ 2 10 км 9/0
[Ci fib]
+24.4 +14.5 54 +27 +37 жарко 1009.7 997.7
09 18.07 С 3 10 км 8/0
[Ac trans Ci fib]
+28.1 +14.1 42 +30 +39 жарко 1008.1 996.3
12 18.07 В 2 10 км 6/0
[Ac trans]
+29.5 +14.3 39 +31 +36 жарко 1006.9 995.2
15 18.07 СВ 1 10 км 9/4 1000 м
[Sc Ac trans Ci fib]
+28.5 +15.8 46 +32 +32 душно 1005.9 994.2 +29.9
18 18.07 ЮЗ 1 10 км 1/0
[Ac trans]
+19.9 +16.9 83 +24 +24 комфорт 1005.9 993.8
21 18.07 штиль 0 10 км ясно +17.2 +15.6 90 +17 +17 по сезону 1005.6 993.4
00 19.07 Ю 1 10 км 1/0
[Ac trans]
+16.3 +14.7 90 +17 +17 тепло 1006.0 993.8
03 19.07 Ю 2 4000 м дымка ясно +21.2 +15.9 72 +25 +28 комфорт 1006.4 994.4 +15.4
06 19.07 Ю 2 10 км 4/0
[Ci fib]
+27.9 +18.4 56 +33 +44 очень
душно
1006.3 994.6
09 19.07 Ю 3 10 км 9/4 1000 м
[Cu hum Ac trans Ci fib]
+30.2 +16.6 44 +34 +38 очень
душно
1006.3 994.6
12 19.07 ЮЗ 2 10 км 8/3 1000 м
[Cu hum Ac trans Ci fib]
+31.3 +14.2 35 +33 +36 жарко 1006.7 995.1
15 19.07 ЮЗ 2 10 км 9/6 1000 м
[Sc Ac trans Ci fib]
+28.7 +14.0 41 +31 +31 жарко 1007.3 995.5 +31.5
18 19.07 ЮЗ 1 10 км 9/8 1000 м
[Sc Ac trans]
+24.0 +18.7 72 +29 +29 душно 1008.7 996.8
21 19.07 штиль 0 10 км {ливн. осадки} 9/9 1000 м
[Sc]
+20.9 +18.6 87 +25 +25 комфорт 1009.5 997.4
00 20.07 штиль 0 10 км {ливн. осадки} 6/0
[Ac trans Ci fib]
+19.3 +16.7 85 +21 +21 комфорт 1010.9 998.8
03 20.07 СЗ 2 10 км ясно +22.7 +16.0 66 +27 +30 душно 1011.1 999.1 +18.1 0.3
06 20.07 С 3 10 км ясно +26.2 +14.1 47 +28 +38 жарко 1011.3 999.4
09 20.07 СВ 2 10 км 9/3 1000 м
[Cu hum Ac trans Ci fib]
+28.5 +12.0 36 +30 +35 жарко 1010.9 999.1
12 20.07 С 2 10 км 10/6 1000 м
[Sc Ac trans Cs]
+27.8 +12.9 40 +29 +31 жарко 1010.6 998.8
15 20.07 штиль 0 10 км 9/6 1000 м
[Sc Ac trans Cs]
+25.5 +18.5 65 +30 +30 душно 1010.4 998.5 +28.8
18 20.07 ЮЗ 2 10 км 9/6 1000 м
[Sc Ac trans]
+20.0 +16.8 82 +23 +23 комфорт 1010.8 998.7
21 20.07 штиль 0 10 км 6/0
[Ac trans Ci fib]
+17.8 +15.3 85 +18 +18 тепло 1010.5 998.3
00 21.07 штиль 0 10 км {ливн. осадки} 9/8 1000 м
[Sc Ac trans]
+16.6 +14.7 89 +16 +16 тепло 1011.7 999.4
03 21.07 СЗ 1 10 км 6/3 1000 м
[Sc Ac trans]
+20.9 +13.4 62 +25 +27 комфорт 1011.8 999.7 +16.0 0.1
06 21.07 З 2 10 км 1/1 1000 м
[Cu hum]
+24.5 +12.8 48 +26 +37 жарко 1011.9 999.9
09 21.07 З 4 10 км 8/8 1000 м
[Cu med, cong]
+25.5 +10.3 38 +26 +28 жарко 1011.3 999.3
12 21.07 З 4 10 км 4/3 1000 м
[Cu med, cong Ac trans]
+27.0 +10.4 35 +28 +31 жарко 1011.0 999.1
15 21.07 СЗ 2 10 км 4/3 1000 м
[Sc Ac trans Ci fib]
+24.5 +12.2 46 +26 +27 жарко 1011.2 999.2 +27.1

 

Местоположение метеостанции Уфа (Башкирия, Россия): широта 54.71 долгота 55.83 высота над уровнем моря 104 м.

В архиве по умолчанию представлена погода в Уфе за последнюю неделю. Архивные данные за месяц целиком и за предыдущие месяцы, начиная с января 2011 года, Вы можете получить, выбрав интересующий диапазон дат из раскрывающегося списка и нажав кнопку "Ввод!".


*Определитесь, кто Вы:
робот инопланетянин человек

Внимание! Время в таблицах - всемирное. Для получения местного времени необходимо прибавить поправку, которая равна 5 ч.

Смотрите также архив погоды в соседних городах и на ближайших метеорологических станциях:

Погода в Уфе АМС (Башкирия, Россия) (11 км)
Погода в Чишмах (Башкирия, Россия) (33 км)
Погода в Кушнаренково (Башкирия, Россия) (56 км)
Погода в Архангельском (Башкирия, Россия) (71 км)
Погода в Улу-Теляке (Башкирия, Россия) (75 км)
Погода в Бирске (Башкирия, Россия) (81 км)
Погода в Павловке (Башкирия, Россия) (87 км)
Погода в Верхнеяркеево (Башкирия, Россия) (125 км)
Погода в Стерлитамаке (Башкирия, Россия) (126 км)
Погода в Ревети (Башкирия, Россия) (130 км)

Пояснения к столбцам:

Ветер - указаны скорость ветра в м/с - средняя за 10 мин, порывы в срок и между сроками (в фигурных скобках) и направление, откуда дует ветер: С - северный, СВ - северо-восточный, В - восточный, ЮВ - юго-восточный, Ю - южный, ЮЗ - юго-западный, З - западный, СЗ - северо-западный.
Видимость - горизонтальная дальность видимости в метрах или километрах. При видимости от 1 до 10 км при отсутствии осадков обычно наблюдается дымка, при ухудшении видимости до 1 км и менее - туман. В сухую погоду видимость может ухудшаться дымом, пылью или мглою.
Явления - указаны атмосферные явления, наблюдавшиеся в срок или в последний час перед сроком; фигурными скобками обозначены явления, наблюдавшиеся между сроками (за 1-3 часа до срока); квадратными скобками обозначены град или гололедные отложения с указанием их диаметра в мм.
Облачность - указаны через наклонную черту общая и нижняя облачность в баллах и высота нижней границы облаков в метрах; квадратными скобками обозначены формы облаков: Ci - перистые, Cs - перисто-слоистые, Cc - перисто-кучевые, Ac - высококучевые, As - высокослоистые, Sc - слоисто-кучевые, Ns - слоисто-дождевые, Cu - кучевые, Cb - кучево-дождевые. Подробнее классификацию облаков см. в Атласе облаков (PDF).
T - Температура воздуха - температура, измеренная на высоте 2 м над землей.
Td - Температура точки росы - температура, при понижении до которой содержащийся в воздухе водяной пар достигнет насыщения.
f - Относительная влажность воздуха - влажноcть воздуха, измеренная на высоте 2 м над землей.
Te - Эффективная температура - температура, которую ощущает одетый по сезону человек в тени. Характеристика душности погоды. При расчете учитывается влияние влажности воздуха и скорости ветра на теплоощущения человека.
Tes - Эффективная температура на солнце - температура, которую ощущает человек, с поправкой на солнечный нагрев. Характеристика знойности погоды. Зависит от высоты солнца над горизонтом, облачности и скорости ветра. Ночью, в пасмурную погоду, а также при ветре 12 м/с и более поправка равна нулю.
P - Атмосферное давление - приведенное к уровню моря атмосферное давление.
Po - Атмосферное давление - измеренное на уровне метеостанции атмосферное давление.
Tmin - Минимальная температура - минимум температуры воздуха на высоте 2 м над землей.
Tmax - Максимальная температура - максимум температуры воздуха на высоте 2 м над землей.
R - Количество осадков - Количество выпавших осадков за период времени, мм. При наведении курсора мыши на число - период времени, за который выпало указанное количество осадков.
R24 - Количество осадков - Количество выпавших осадков за 24 часа, мм.
S - Снежный покров - Высота снежного покрова, см. При наведении курсора мыши на число - состояние снежного покрова и степень покрытия местности в баллах.